| time (UTC) | temp F | wind direction | speed MPH | gust MPH | rain 1hr in | rain 24hr in | rain mn in | humidity % | barometer mb |
| 20260504100107 | 62 | 270 | 12.0 | 20.0 | 0.00 | 0.30 | 0.00 | 64 | 1009.5 |
| 20260504090106 | 60 | 268 | 12.0 | 21.0 | 0.00 | 0.30 | 0.00 | 64 | 1009.6 |
| 20260504081607 | 59 | 270 | 11.0 | 24.0 | 0.00 | 0.30 | 0.00 | 64 | 1009.1 |
| 20260504081106 | 59 | 292 | 13.0 | 23.0 | 0.00 | 0.30 | 0.00 | 64 | 1008.9 |
| 20260504080606 | 59 | 330 | 9.0 | 24.0 | 0.00 | 0.30 | 0.00 | 64 | 1009.1 |
| 20260504080106 | 59 | 313 | 10.0 | 24.0 | 0.00 | 0.30 | 0.00 | 64 | 1009.0 |
| 20260504070106 | 58 | 286 | 12.0 | 23.0 | 0.00 | 0.33 | 0.00 | 63 | 1008.1 |
| 20260504050607 | 55 | 292 | 11.0 | 22.0 | 0.00 | 0.33 | 0.00 | 62 | 1006.7 |
| 20260504045607 | 55 | 256 | 10.0 | 21.0 | 0.00 | 0.33 | 0.00 | 62 | 1006.9 |
| 20260504045107 | 55 | 270 | 7.0 | 21.0 | 0.00 | 0.33 | 0.00 | 62 | 1006.6 |
| 20260504044107 | 55 | 301 | 7.0 | 18.0 | 0.00 | 0.33 | 0.00 | 62 | 1006.5 |
| 20260504042606 | 55 | 284 | 9.0 | 17.0 | 0.00 | 0.33 | 0.00 | 62 | 1006.4 |
| 20260504042106 | 55 | 270 | 9.0 | 22.0 | 0.00 | 0.33 | 0.00 | 62 | 1006.2 |
| 20260504041607 | 55 | 338 | 9.0 | 21.0 | 0.00 | 0.33 | 0.00 | 61 | 1006.0 |
| 20260504041107 | 55 | 260 | 10.0 | 23.0 | 0.00 | 0.33 | 0.00 | 61 | 1005.8 |
| 20260504040607 | 55 | 278 | 10.0 | 21.0 | 0.00 | 0.33 | 0.00 | 61 | 1005.8 |
| 20260504040106 | 54 | 315 | 10.0 | 20.0 | 0.00 | 0.33 | 0.00 | 61 | 1005.6 |
| 20260504035606 | 55 | 338 | 8.0 | 22.0 | 0.00 | 0.33 | 0.00 | 61 | 1005.5 |
| 20260504035107 | 54 | 338 | 11.0 | 24.0 | 0.00 | 0.33 | 0.00 | 61 | 1005.4 |
| 20260504034606 | 54 | 343 | 9.0 | 20.0 | 0.00 | 0.33 | 0.00 | 61 | 1005.3 |
| 20260504032106 | 54 | 315 | 14.0 | 31.0 | 0.00 | 0.33 | 0.00 | 61 | 1005.3 |
| 20260504031606 | 55 | 292 | 14.0 | 26.0 | 0.00 | 0.33 | 0.00 | 61 | 1005.3 |
| 20260504031107 | 54 | 277 | 12.0 | 22.0 | 0.00 | 0.33 | 0.00 | 61 | 1005.4 |
| 20260504030607 | 55 | 257 | 7.0 | 21.0 | 0.00 | 0.33 | 0.00 | 61 | 1005.1 |
| 20260504030107 | 54 | 292 | 11.0 | 24.0 | 0.00 | 0.33 | 0.00 | 60 | 1005.2 |
| 20260504025606 | 55 | 292 | 14.0 | 23.0 | 0.00 | 0.33 | 0.00 | 60 | 1005.2 |
| 20260504025106 | 54 | 292 | 11.0 | 23.0 | 0.00 | 0.33 | 0.00 | 60 | 1005.3 |
| 20260504024607 | 55 | 279 | 12.0 | 23.0 | 0.00 | 0.33 | 0.00 | 60 | 1005.0 |
| 20260504024107 | 54 | 292 | 11.0 | 28.0 | 0.00 | 0.33 | 0.00 | 59 | 1005.1 |
| 20260504023608 | 54 | 22 | 13.0 | 29.0 | 0.00 | 0.33 | 0.00 | 59 | 1005.0 |
| 20260504022606 | 54 | 304 | 13.0 | 28.0 | 0.00 | 0.33 | 0.00 | 59 | 1004.9 |
| 20260504022107 | 54 | 276 | 14.0 | 29.0 | 0.00 | 0.33 | 0.00 | 59 | 1004.8 |
| 20260504021107 | 55 | 270 | 12.0 | 22.0 | 0.00 | 0.33 | 0.00 | 59 | 1004.9 |
| 20260504020607 | 55 | 270 | 9.0 | 28.0 | 0.00 | 0.33 | 0.00 | 59 | 1005.0 |
| 20260504020107 | 55 | 292 | 11.0 | 29.0 | 0.00 | 0.33 | 0.00 | 59 | 1004.7 |
| 20260504015107 | 55 | 283 | 10.0 | 29.0 | 0.00 | 0.33 | 0.00 | 59 | 1004.6 |
| 20260504014607 | 55 | 268 | 13.0 | 26.0 | 0.00 | 0.33 | 0.00 | 59 | 1004.5 |
| 20260504014107 | 55 | 280 | 7.0 | 20.0 | 0.00 | 0.33 | 0.00 | 59 | 1004.6 |
| 20260504013606 | 55 | 313 | 11.0 | 29.0 | 0.00 | 0.33 | 0.00 | 59 | 1004.6 |
| 20260504013107 | 55 | 270 | 12.0 | 29.0 | 0.00 | 0.33 | 0.00 | 59 | 1004.5 |
| 20260504012606 | 55 | 315 | 12.0 | 26.0 | 0.00 | 0.33 | 0.00 | 59 | 1004.7 |
| 20260504012106 | 55 | 313 | 14.0 | 24.0 | 0.00 | 0.33 | 0.00 | 59 | 1004.5 |
| 20260504011607 | 55 | 273 | 12.0 | 21.0 | 0.00 | 0.33 | 0.00 | 59 | 1004.5 |
| 20260504011106 | 55 | 246 | 10.0 | 24.0 | 0.00 | 0.33 | 0.00 | 59 | 1004.5 |
| 20260504010106 | 55 | 281 | 14.0 | 32.0 | 0.00 | 0.33 | 0.00 | 59 | 1004.3 |
| 20260504005606 | 55 | 285 | 14.0 | 29.0 | 0.00 | 0.33 | 0.00 | 59 | 1004.3 |
| 20260504005107 | 55 | 284 | 13.0 | 25.0 | 0.00 | 0.33 | 0.00 | 59 | 1004.3 |
| 20260504004607 | 55 | 296 | 14.0 | 29.0 | 0.00 | 0.33 | 0.00 | 59 | 1004.3 |
| 20260504004106 | 55 | 289 | 13.0 | 24.0 | 0.00 | 0.33 | 0.00 | 59 | 1004.3 |
| 20260504003607 | 55 | 292 | 10.0 | 29.0 | 0.00 | 0.33 | 0.00 | 59 | 1004.4 |
| 20260504003107 | 55 | 269 | 10.0 | 29.0 | 0.00 | 0.33 | 0.00 | 60 | 1004.3 |
| 20260504002607 | 55 | 284 | 13.0 | 25.0 | 0.00 | 0.33 | 0.00 | 59 | 1004.2 |
| 20260504002107 | 55 | 270 | 15.0 | 28.0 | 0.00 | 0.33 | 0.00 | 59 | 1004.2 |
| 20260504001107 | 55 | 292 | 13.0 | 28.0 | 0.00 | 0.33 | 0.00 | 59 | 1004.0 |
| 20260504000606 | 55 | 315 | 15.0 | 28.0 | 0.00 | 0.33 | 0.00 | 59 | 1004.1 |
| 20260504000106 | 55 | 315 | 14.0 | 30.0 | 0.00 | 0.33 | 0.00 | 59 | 1003.9 |
| 20260503235606 | 55 | 292 | 13.0 | 30.0 | 0.00 | 0.33 | 0.00 | 59 | 1004.0 |
| 20260503235107 | 55 | 292 | 12.0 | 21.0 | 0.00 | 0.33 | 0.00 | 59 | 1003.8 |
| 20260503234606 | 55 | 328 | 11.0 | 26.0 | 0.00 | 0.33 | 0.00 | 59 | 1003.8 |
| 20260503234107 | 55 | 292 | 16.0 | 26.0 | 0.00 | 0.33 | 0.00 | 59 | 1004.0 |
| 20260503233607 | 55 | 270 | 10.0 | 29.0 | 0.00 | 0.33 | 0.00 | 59 | 1004.0 |
| 20260503233106 | 55 | 315 | 13.0 | 30.0 | 0.00 | 0.33 | 0.00 | 59 | 1004.0 |
| 20260503232606 | 55 | 295 | 13.0 | 26.0 | 0.00 | 0.33 | 0.00 | 59 | 1003.7 |
| 20260503231608 | 55 | 292 | 9.0 | 25.0 | 0.00 | 0.33 | 0.00 | 59 | 1003.8 |
| 20260503231107 | 55 | 259 | 13.0 | 26.0 | 0.00 | 0.33 | 0.00 | 59 | 1003.7 |
| 20260503230606 | 55 | 275 | 15.0 | 24.0 | 0.00 | 0.33 | 0.00 | 59 | 1004.0 |
| 20260503230106 | 55 | 315 | 13.0 | 22.0 | 0.00 | 0.33 | 0.00 | 59 | 1003.8 |
| 20260503225607 | 55 | 259 | 17.0 | 29.0 | 0.00 | 0.33 | 0.00 | 59 | 1003.9 |
| 20260503225107 | 55 | 283 | 12.0 | 29.0 | 0.00 | 0.33 | 0.00 | 59 | 1003.9 |
| 20260503224606 | 55 | 275 | 10.0 | 22.0 | 0.00 | 0.33 | 0.00 | 59 | 1003.6 |
| 20260503224108 | 55 | 283 | 14.0 | 23.0 | 0.00 | 0.33 | 0.00 | 59 | 1003.7 |
| 20260503223107 | 55 | 248 | 12.0 | 25.0 | 0.00 | 0.33 | 0.00 | 59 | 1003.5 |
| 20260503222607 | 55 | 282 | 9.0 | 25.0 | 0.00 | 0.33 | 0.00 | 59 | 1003.7 |
| 20260503221607 | 55 | 348 | 13.0 | 22.0 | 0.00 | 0.33 | 0.00 | 59 | 1003.5 |
| 20260503220607 | 55 | 255 | 11.0 | 22.0 | 0.00 | 0.33 | 0.00 | 59 | 1003.4 |
| 20260503215606 | 55 | 282 | 12.0 | 23.0 | 0.00 | 0.33 | 0.00 | 59 | 1003.4 |
| 20260503215107 | 55 | 292 | 9.0 | 26.0 | 0.00 | 0.33 | 0.00 | 59 | 1003.3 |
| 20260503214606 | 55 | 269 | 14.0 | 26.0 | 0.00 | 0.33 | 0.00 | 59 | 1003.3 |
| 20260503214107 | 55 | 301 | 12.0 | 21.0 | 0.00 | 0.33 | 0.00 | 59 | 1003.4 |
| 20260503213606 | 55 | 349 | 14.0 | 30.0 | 0.00 | 0.33 | 0.00 | 59 | 1003.4 |
| 20260503213106 | 55 | 288 | 10.0 | 24.0 | 0.00 | 0.33 | 0.00 | 59 | 1003.3 |
| 20260503212606 | 55 | 315 | 12.0 | 24.0 | 0.00 | 0.33 | 0.00 | 59 | 1003.3 |
| 20260503212107 | 55 | 285 | 10.0 | 24.0 | 0.00 | 0.33 | 0.00 | 58 | 1003.2 |
| 20260503211106 | 55 | 299 | 11.0 | 30.0 | 0.00 | 0.33 | 0.00 | 59 | 1003.2 |
| 20260503210107 | 55 | 292 | 11.0 | 24.0 | 0.00 | 0.33 | 0.00 | 58 | 1003.0 |
| 20260503205607 | 55 | 316 | 7.0 | 24.0 | 0.00 | 0.33 | 0.33 | 59 | 1003.1 |
| 20260503204606 | 55 | 328 | 8.0 | 26.0 | 0.00 | 0.33 | 0.33 | 58 | 1003.3 |
| 20260503204106 | 55 | 299 | 12.0 | 26.0 | 0.00 | 0.33 | 0.33 | 58 | 1003.3 |
| 20260503203606 | 55 | 338 | 8.0 | 24.0 | 0.00 | 0.33 | 0.33 | 58 | 1003.1 |
| 20260503203106 | 55 | 300 | 12.0 | 22.0 | 0.00 | 0.33 | 0.33 | 58 | 1003.3 |
| 20260503202606 | 55 | 305 | 9.0 | 24.0 | 0.00 | 0.33 | 0.33 | 58 | 1003.1 |
| 20260503202107 | 55 | 295 | 14.0 | 24.0 | 0.00 | 0.33 | 0.33 | 58 | 1003.2 |
| 20260503201607 | 55 | 333 | 14.0 | 24.0 | 0.00 | 0.33 | 0.33 | 58 | 1003.0 |
| 20260503201106 | 55 | 270 | 13.0 | 23.0 | 0.00 | 0.33 | 0.33 | 58 | 1003.1 |
| 20260503200606 | 55 | 270 | 9.0 | 25.0 | 0.00 | 0.33 | 0.33 | 58 | 1003.3 |
| 20260503200106 | 55 | 285 | 11.0 | 21.0 | 0.00 | 0.33 | 0.33 | 58 | 1003.2 |
| 20260503195606 | 55 | 338 | 12.0 | 23.0 | 0.00 | 0.33 | 0.33 | 58 | 1003.1 |
| 20260503195107 | 55 | 270 | 6.0 | 22.0 | 0.00 | 0.33 | 0.33 | 58 | 1003.3 |
| 20260503194607 | 55 | 295 | 9.0 | 25.0 | 0.00 | 0.33 | 0.33 | 58 | 1003.0 |
| 20260503194108 | 55 | 292 | 12.0 | 23.0 | 0.00 | 0.33 | 0.33 | 58 | 1003.0 |
| 20260503193606 | 55 | 292 | 6.0 | 20.0 | 0.00 | 0.33 | 0.33 | 58 | 1002.8 |
| 20260503193106 | 55 | 281 | 10.0 | 21.0 | 0.00 | 0.33 | 0.33 | 58 | 1002.8 |
| 20260503192607 | 55 | 285 | 11.0 | 21.0 | 0.00 | 0.33 | 0.33 | 58 | 1002.7 |
| 20260503192107 | 55 | 311 | 9.0 | 20.0 | 0.00 | 0.33 | 0.33 | 58 | 1003.0 |
| 20260503191607 | 55 | 313 | 10.0 | 24.0 | 0.00 | 0.33 | 0.33 | 58 | 1002.8 |
| 20260503191106 | 55 | 280 | 12.0 | 21.0 | 0.00 | 0.33 | 0.33 | 58 | 1003.0 |
| 20260503190606 | 55 | 279 | 9.0 | 30.0 | 0.00 | 0.33 | 0.33 | 58 | 1003.0 |
| 20260503190107 | 55 | 295 | 7.0 | 30.0 | 0.00 | 0.33 | 0.33 | 58 | 1003.0 |
| 20260503185607 | 55 | 300 | 6.0 | 16.0 | 0.00 | 0.33 | 0.33 | 58 | 1002.9 |
| 20260503185107 | 55 | 288 | 8.0 | 25.0 | 0.00 | 0.33 | 0.33 | 58 | 1002.9 |
| 20260503184107 | 55 | 330 | 10.0 | 21.0 | 0.00 | 0.33 | 0.33 | 57 | 1002.7 |
| 20260503183607 | 55 | 307 | 9.0 | 21.0 | 0.00 | 0.33 | 0.33 | 58 | 1002.7 |
| 20260503183106 | 55 | 321 | 10.0 | 17.0 | 0.00 | 0.33 | 0.33 | 58 | 1002.8 |
| 20260503182606 | 54 | 327 | 11.0 | 25.0 | 0.00 | 0.33 | 0.33 | 57 | 1002.6 |
| 20260503182107 | 55 | 329 | 5.0 | 20.0 | 0.00 | 0.33 | 0.33 | 57 | 1002.6 |
| 20260503181606 | 55 | 318 | 7.0 | 21.0 | 0.00 | 0.33 | 0.33 | 57 | 1002.6 |
| 20260503181106 | 55 | 248 | 10.0 | 22.0 | 0.00 | 0.33 | 0.33 | 58 | 1002.5 |
| 20260503180607 | 55 | 285 | 9.0 | 24.0 | 0.00 | 0.33 | 0.33 | 57 | 1002.6 |
| 20260503180107 | 55 | 314 | 9.0 | 21.0 | 0.00 | 0.33 | 0.33 | 58 | 1002.6 |
| 20260503175606 | 55 | 307 | 9.0 | 30.0 | 0.00 | 0.33 | 0.33 | 57 | 1002.6 |
| 20260503175107 | 55 | 292 | 10.0 | 30.0 | 0.00 | 0.33 | 0.33 | 57 | 1002.5 |
| 20260503174107 | 55 | 239 | 9.0 | 20.0 | 0.00 | 0.33 | 0.33 | 57 | 1002.2 |
| 20260503173606 | 55 | 270 | 10.0 | 29.0 | 0.00 | 0.33 | 0.33 | 57 | 1002.2 |
| 20260503173107 | 55 | 274 | 12.0 | 25.0 | 0.00 | 0.33 | 0.33 | 57 | 1002.1 |
| 20260503172606 | 55 | 315 | 6.0 | 21.0 | 0.00 | 0.33 | 0.33 | 57 | 1002.2 |
| 20260503171608 | 55 | 292 | 8.0 | 23.0 | 0.00 | 0.33 | 0.33 | 57 | 1002.1 |
| 20260503171106 | 55 | 253 | 9.0 | 23.0 | 0.00 | 0.33 | 0.33 | 57 | 1002.1 |
| 20260503170606 | 55 | 248 | 9.0 | 18.0 | 0.00 | 0.33 | 0.33 | 57 | 1001.9 |
| 20260503160106 | 53 | 271 | 10.0 | 23.0 | 0.02 | 0.33 | 0.33 | 49 | 1001.7 |
| 20260503150606 | 56 | 280 | 11.0 | 25.0 | 0.00 | 0.31 | 0.31 | 57 | 1002.0 |
| 20260503150107 | 56 | 265 | 9.0 | 22.0 | 0.00 | 0.31 | 0.31 | 57 | 1002.0 |
| 20260503140106 | 54 | 255 | 12.0 | 23.0 | 0.06 | 0.31 | 0.31 | 54 | 1002.3 |
| 20260503131107 | 56 | 274 | 12.0 | 26.0 | 0.16 | 0.25 | 0.25 | 53 | 1002.5 |
| 20260503130106 | 56 | 294 | 12.0 | 23.0 | 0.22 | 0.25 | 0.25 | 49 | 1002.4 |
| 20260503120106 | 59 | 300 | 9.0 | 15.0 | 0.00 | 0.04 | 0.04 | 65 | 1002.5 |
| 20260503110607 | 61 | 232 | 9.0 | 26.0 | 0.00 | 0.04 | 0.04 | 65 | 1002.9 |
| 20260503110107 | 61 | 270 | 11.0 | 22.0 | 0.00 | 0.04 | 0.04 | 64 | 1003.1 |